TimeMDT,TemperatureF,Dew PointF,Humidity,Sea Level PressureIn,VisibilityMPH,Wind Direction,Wind SpeedMPH,Gust SpeedMPH,PrecipitationIn,Events,Conditions,WindDirDegrees,DateUTC
12:15 AM,30.2,19.4,64,30.27,10.0,North,9.2,-,N/A,,Clear,360,2012-10-04 06:15:00
12:35 AM,28.4,19.4,69,30.28,10.0,North,9.2,-,N/A,,Clear,360,2012-10-04 06:35:00
12:55 AM,28.4,19.4,69,30.28,10.0,North,9.2,-,N/A,,Clear,360,2012-10-04 06:55:00
1:15 AM,28.4,19.4,69,30.27,10.0,North,6.9,-,N/A,,Clear,360,2012-10-04 07:15:00
1:35 AM,26.6,19.4,74,30.28,10.0,North,4.6,-,N/A,,Clear,350,2012-10-04 07:35:00
1:55 AM,26.6,17.6,69,30.28,10.0,NE,3.5,-,N/A,,Clear,40,2012-10-04 07:55:00
2:15 AM,24.8,17.6,74,30.28,10.0,Calm,Calm,-,N/A,,Clear,0,2012-10-04 08:15:00
2:35 AM,24.8,17.6,74,30.28,10.0,NNE,5.8,-,N/A,,Clear,20,2012-10-04 08:35:00
2:55 AM,24.8,17.6,74,30.28,10.0,NE,5.8,-,N/A,,Clear,40,2012-10-04 08:55:00
3:15 AM,24.8,17.6,74,30.27,10.0,ENE,4.6,-,N/A,,Clear,70,2012-10-04 09:15:00
3:35 AM,21.2,15.8,80,30.27,10.0,Calm,Calm,-,N/A,,Clear,0,2012-10-04 09:35:00
3:55 AM,23.0,15.8,74,30.27,10.0,Calm,Calm,-,N/A,,Clear,0,2012-10-04 09:55:00
4:15 AM,21.2,15.8,80,30.27,10.0,East,3.5,-,N/A,,Clear,100,2012-10-04 10:15:00
4:35 AM,19.4,14.0,80,30.26,10.0,East,5.8,-,N/A,,Clear,100,2012-10-04 10:35:00
4:55 AM,21.2,15.8,80,30.26,10.0,East,4.6,-,N/A,,Clear,90,2012-10-04 10:55:00
5:15 AM,21.2,14.0,74,30.26,10.0,Calm,Calm,-,N/A,,Clear,0,2012-10-04 11:15:00
5:35 AM,17.6,14.0,86,30.26,10.0,North,5.8,-,N/A,,Clear,360,2012-10-04 11:35:00
5:55 AM,17.6,15.8,93,30.26,10.0,North,3.5,-,N/A,,Clear,10,2012-10-04 11:55:00
6:15 AM,19.4,14.0,80,30.26,10.0,Calm,Calm,-,N/A,,Clear,0,2012-10-04 12:15:00
6:35 AM,21.2,14.0,74,30.26,10.0,Calm,Calm,-,N/A,,Clear,0,2012-10-04 12:35:00
6:54 AM,15.8,14.0,93,30.26,10.0,North,8.1,-,N/A,,Clear,350,2012-10-04 12:54:00
7:53 AM,15.8,14.0,93,30.26,10.0,North,3.5,-,N/A,,Clear,10,2012-10-04 13:53:00
8:45 AM,26.6,19.4,74,30.26,10.0,Calm,Calm,-,N/A,,Clear,0,2012-10-04 14:45:00
10:25 AM,37.4,17.6,45,30.24,10.0,Calm,Calm,-,N/A,,Clear,0,2012-10-04 16:25:00
10:51 AM,37.4,17.6,45,30.23,10.0,SSW,5.8,-,N/A,,Clear,200,2012-10-04 16:51:00
11:51 AM,41.0,17.6,39,30.20,10.0,South,6.9,-,N/A,,Clear,180,2012-10-04 17:51:00
12:56 PM,46.4,15.8,29,30.17,10.0,SW,6.9,-,N/A,,Clear,230,2012-10-04 18:56:00
1:51 PM,48.2,15.8,27,30.13,10.0,SSW,5.8,-,N/A,,Scattered Clouds,200,2012-10-04 19:51:00
2:51 PM,51.8,14.0,22,30.10,10.0,South,13.8,-,N/A,,Scattered Clouds,190,2012-10-04 20:51:00
3:53 PM,53.6,10.4,18,30.09,10.0,SSW,6.9,16.1,N/A,,Scattered Clouds,200,2012-10-04 21:53:00
4:53 PM,51.8,10.4,19,30.08,10.0,SW,9.2,20.7,N/A,,Overcast,220,2012-10-04 22:53:00
5:57 PM,50.0,12.2,22,30.09,10.0,West,6.9,-,N/A,,Clear,270,2012-10-04 23:57:00
6:51 PM,46.4,12.2,25,30.10,10.0,WSW,15.0,-,N/A,,Mostly Cloudy,250,2012-10-05 00:51:00
7:53 PM,44.6,12.2,27,30.11,10.0,West,3.5,-,N/A,,Overcast,280,2012-10-05 01:53:00
8:55 PM,44.6,12.2,27,30.11,10.0,North,12.7,-,N/A,,Overcast,10,2012-10-05 02:55:00
9:15 PM,44.6,15.8,31,30.11,10.0,NNE,17.3,-,N/A,,Overcast,20,2012-10-05 03:15:00
9:36 PM,42.8,14.0,31,30.13,10.0,NNE,12.7,-,N/A,,Overcast,20,2012-10-05 03:36:00
9:55 PM,42.8,12.2,29,30.13,10.0,North,13.8,-,N/A,,Overcast,10,2012-10-05 03:55:00
10:35 PM,41.0,14.0,33,30.13,10.0,NNE,10.4,-,N/A,,Overcast,20,2012-10-05 04:35:00
10:55 PM,41.0,15.8,36,30.14,10.0,NNE,12.7,19.6,N/A,,Overcast,20,2012-10-05 04:55:00
11:15 PM,39.2,17.6,42,30.14,10.0,NNE,9.2,-,N/A,,Mostly Cloudy,20,2012-10-05 05:15:00
11:35 PM,39.2,19.4,45,30.14,10.0,NNE,11.5,-,N/A,,Scattered Clouds,20,2012-10-05 05:35:00
11:55 PM,37.4,19.4,48,30.14,10.0,NNE,10.4,-,N/A,,Partly Cloudy,20,2012-10-05 05:55:00